Regional Weather Roundup
Issued by NWS Albany, NY

Home | Current Version | Previous Version | Text Only | Print | Product List | Glossary On
Versions: 1 2 3 4 5 6 7 8 9 10 11 12 13 14 15 16 17 18 19 20 21 22 23 24 25 26 27
000
ASUS41 KALY 292110
RWRALY

NEW YORK STATE HOURLY WEATHER ROUNDUP
NATIONAL WEATHER SERVICE ALBANY NY
500 PM EDT MON AUG 29 2016

NOTE: "FAIR" INDICATES FEW OR NO CLOUDS BELOW 12,000 FEET WITH NO
SIGNIFICANT WEATHER AND/OR NO OBSTRUCTIONS TO VISIBILITY.

NYZ032-033-038>043-046>054-057>066-NYZ062>081-082-084-292200-
EAST


CITY           SKY/WX    TMP DP  RH WIND       PRES   REMARKS
ALBANY         MOSUNNY   83  56  39 N10       30.11S
GLENS FALLS    SUNNY     81  55  40 NW12      30.12S
POUGHKEEPSIE   SUNNY     86  56  35 N10G18    30.07S
NEWBURGH       MOSUNNY   86  61  42 N12G21    30.10F
MONTGOMERY     SUNNY     86  59  39 N12       30.09S
WHITE PLAINS   MOSUNNY   87  58  37 NW9       30.08S
ISLIP          MOSUNNY   89  59  36 NW13G20   30.05S
NEW YORK CITY  MOSUNNY   90  60  36 N13       30.05S
CENTRAL PARK   SUNNY     88  59  37 VRB5      30.09S
$$

NYZ005>009-017-018-044>046-055-056-292200-
CENTRAL


CITY           SKY/WX    TMP DP  RH WIND       PRES   REMARKS
FULTON         SUNNY     76  57  51 N9        30.20F
SYRACUSE       NOT AVBL
ROME           SUNNY     77  59  53 NW10      30.17S
ELMIRA         MOSUNNY   81  61  50 N7        30.17F
BINGHAMTON     SUNNY     76  57  51 NW8       30.20F
MONTICELLO     SUNNY     79  57  47 N12G18    30.18S
$$

NYZ026>034-041>043-087-292200-
NORTH


CITY           SKY/WX    TMP DP  RH WIND       PRES   REMARKS
WATERTOWN      SUNNY     79  52  38 NW12      30.18S
FORT DRUM      NOT AVBL
MASSENA        SUNNY     76  55  48 N7        30.19S
SARANAC LAKE   SUNNY     70  51  51 NW5       30.19F
PLATTSBURGH    MOSUNNY   75  54  47 N16       30.17R
$$

NYZ001>004-010>016-019>021-085-292200-
WEST


CITY           SKY/WX    TMP DP  RH WIND       PRES   REMARKS
NIAGARA FALLS  MOSUNNY   79  52  38 NE7       30.21F
BUFFALO        MOSUNNY   80  61  52 N10       30.21S
DUNKIRK        SUNNY     77  61  57 NW7       30.22F
JAMESTOWN      SUNNY     75  54  46 N8        30.24F
WELLSVILLE     SUNNY     77  57  50 N5        30.26F
ROCHESTER      MOSUNNY   78  59  51 NE9       30.21F
PENN YAN       MOSUNNY   78  59  51 N8        30.21S
$$

             KEY
       WCI = WIND CHILL INDEX
       VSB = VISIBILITY
       HX  = HEAT INDEX
$$




USA.gov is the U.S. government's official web portal to all federal, state and local government web resources and services.